Location: Bottenau
(48.5138°N, 8.0462°E)
Time: 10:04:29
(UTC+00:00)

Meteor 1-5 Rocket - Pass Details

Date: 18 April 2021
Orbit: 789 x 915 km, 81.2° (Epoch: 05 May)

Event Time Altitude Azimuth Distance (km) Brightness Sun altitude
Rises 23:39:44 0° 347° (NNW) 3,501 8.5 -30.2°
Reaches altitude 10° 23:42:14 10° 348° (NNW) 2,540 7.5 -30.2°
Enters shadow 23:47:20 71° 342° (NNW) 910 4.4 -30.1°
